Dewpoint
40 38 37 35 35 35 34 34 36 36 37 37 37 38 37 36 36 35 36 38 39 39 40 41 41 40 40 42 44 43 42 42 41 41 41 42 43 42 42 41 41 41 41 39 38 38 37 38 38 34 34 25
39 39 39 37 36 36 35 33 34 35 35 37 37 36 36 35 33 33 34 35 37 37 37 39 38 38 41 43 44 44 44 42 42 41 41 41 42 41 42 41 41 41 39 38 37 36 36 36 36 31 32 24
40 40 40 39 38 37 36 35 35 34 35 35 36 36 34 34 32 31 31 31 35 33 36 36 35 37 41 42 42 43 44 43 43 43 42 42 42 42 41 41 40 37 37 37 35 35 34 34 34 29 30 24
35 43 40 41 40 39 38 37 36 36 36 35 35 35 33 32 34 32 29 29 29 30 33 32 33 36 40 40 41 42 42 42 41 41 41 41 40 41 40 39 36 33 34 33 33 32 33 32 31 19 23 22
33 35 42 43 41 41 39 38 38 37 37 37 36 36 40 33 28 25 27 26 23 30 33 31 33 36 37 38 40 40 40 40 41 40 40 39 39 39 38 37 31 29 30 31 31 31 30 31 18 20 21 22
33 34 40 38 36 39 40 42 41 38 36 41 34 38 35 31 31 28 26 25 32 30 28 29 35 33 33 36 37 37 36 37 38 38 38 38 39 37 36 33 20 25 31 30 29 29 29 21 20 20 21 21
32 32 32 34 36 36 42 39 38 36 37 34 32 32 29 33 28 28 28 27 30 32 34 33 30 29 31 33 34 33 33 33 34 35 37 36 34 34 32 23 20 21 21 20 31 31 22 20 20 20 20 20
29 30 30 31 34 35 33 33 36 34 34 33 31 30 28 27 27 28 27 32 30 31 31 23 30 29 29 29 30 29 32 32 32 33 33 32 31 33 27 22 20 22 19 22 22 21 20 19 19 19 20 21
26 27 29 30 32 33 31 29 30 32 32 32 30 29 28 27 26 27 26 24 22 21 22 22 20 21 20 23 21 30 25 23 22 24 21 21 26 19 21 21 20 20 21 23 21 19 19 18 19 18 20 19
26 30 26 27 29 30 29 28 26 27 29 29 28 27 27 28 26 24 25 23 22 22 22 21 20 19 20 21 23 28 22 21 21 20 20 20 19 19 19 19 20 20 25 19 18 18 18 19 19 19 18 18
26 27 25 25 26 28 27 26 25 24 24 25 26 26 28 27 24 22 21 21 21 21 21 19 18 18 20 20 19 24 23 20 20 20 20 19 19 19 19 19 18 19 18 18 17 17 18 18 19 19 19 19
21 24 25 24 31 31 30 28 24 23 23 24 24 26 24 30 23 21 20 20 20 19 20 19 18 20 20 20 19 21 23 20 19 19 19 19 19 18 18 17 17 17 17 18 18 17 18 18 18 19 19 19
20 22 25 27 27 26 33 29 24 22 23 22 23 24 27 28 25 22 20 19 18 18 18 18 18 18 17 18 18 20 19 20 19 18 19 19 18 17 17 16 16 18 19 19 17 17 17 18 18 19 19 19
22 22 24 25 25 25 32 29 27 24 22 21 21 20 24 25 25 22 19 18 18 18 17 18 18 20 18 18 18 19 18 19 20 19 18 18 17 16 16 16 16 22 18 16 16 16 18 18 18 18 18 19
23 25 24 27 25 25 25 27 30 29 24 22 21 20 23 24 25 25 21 18 18 18 18 17 17 17 17 17 16 18 18 19 20 19 19 18 17 16 16 16 16 18 16 16 16 19 17 17 17 17 17 18
27 28 25 29 26 25 24 27 25 25 25 28 23 22 22 22 22 29 24 20 19 18 17 17 16 16 16 16 16 18 18 18 18 19 19 19 19 19 18 17 17 17 17 16 16 16 16 16 16 17 17 17
25 26 27 27 26 26 30 27 26 24 23 23 23 24 23 22 21 25 24 23 21 30 20 17 16 16 19 17 16 17 20 20 20 19 18 17 19 18 18 17 16 19 18 17 16 16 15 15 15 15 16 16
24 24 25 29 27 28 28 26 24 26 24 24 26 24 23 22 22 25 22 22 21 20 19 19 18 17 16 16 17 18 20 19 18 17 17 16 18 21 22 19 18 16 14 14 14 14 15 16 15 15 15 15
23 23 23 23 24 24 25 25 24 23 23 23 22 22 21 22 23 24 23 22 21 19 18 17 17 17 17 17 18 17 18 18 17 17 16 17 15 15 16 15 17 17 16 15 14 14 16 14 14 15 14 14
21 21 21 22 28 23 24 24 24 23 23 22 22 23 22 22 22 24 22 22 21 20 18 17 16 16 16 17 18 17 17 19 17 16 17 17 17 15 14 19 15 15 14 14 14 14 14 14 16 14 14 14
22 22 21 21 21 24 24 21 22 22 22 22 21 20 20 20 22 23 22 22 22 20 18 17 16 16 16 18 17 16 16 16 18 16 17 16 20 17 15 14 14 13 14 13 14 13 12 12 14 13 13 13
22 22 21 20 21 27 19 20 21 21 21 20 21 20 20 20 21 24 21 21 21 20 19 18 17 16 16 16 16 16 16 15 15 15 15 14 15 16 15 13 12 11 12 14 14 13 12 12 12 12 12 12
23 23 23 19 19 19 21 21 20 20 19 20 20 20 20 20 22 23 21 20 21 19 18 18 18 18 17 17 16 15 15 14 15 17 15 14 13 16 16 14 13 12 13 14 15 14 13 12 12 12 12 16
22 22 23 19 19 20 20 18 22 22 20 20 19 21 21 21 20 19 21 19 19 19 19 18 17 16 17 16 16 15 14 14 13 13 13 13 13 13 15 18 16 15 14 13 12 14 13 12 12 11 13 12
22 19 20 21 19 19 18 19 22 23 20 19 19 20 20 20 20 19 19 21 19 18 20 20 18 16 16 16 17 16 15 14 13 13 14 15 15 16 13 12 13 14 14 13 11 10 10 10 10 15 15 12
22 21 20 19 19 19 19 18 18 18 18 18 20 21 21 20 19 19 18 20 19 20 17 16 16 16 16 15 15 16 16 15 22 17 16 15 14 14 14 12 13 14 14 10 9 7 6 8 9 12 12 11
24 22 22 20 20 19 19 19 19 18 19 19 19 19 18 19 18 18 18 18 20 18 18 17 16 15 15 15 17 17 15 15 15 15 15 14 13 12 14 15 15 13 12 9 9 10 10 6 7 11 13 15
25 25 26 24 23 23 21 20 23 22 20 19 18 17 17 17 17 18 17 17 17 18 18 17 16 15 15 14 16 15 14 13 13 13 13 13 15 13 10 10 12 16 13 11 10 7 7 6 6 4 4 9
25 25 22 22 22 22 21 20 20 19 19 19 21 22 20 20 19 18 18 17 17 18 17 17 16 16 15 14 14 15 14 13 12 12 12 12 13 13 11 9 9 14 14 12 12 8 6 5 3 4 4 4
25 22 21 20 19 18 18 18 18 18 18 19 19 19 20 19 19 18 18 18 17 17 19 17 16 16 15 15 15 16 14 13 13 12 12 11 11 10 11 10 9 8 16 14 15 12 8 6 6 5 4 4
24 20 19 19 19 19 18 18 18 19 19 20 20 21 20 19 19 18 17 16 16 16 16 17 17 16 16 15 14 17 15 13 12 12 12 14 12 10 14 12 9 9 9 11 14 14 12 13 12 7 6 6